Location: Albany
(35.0000°S, 118.0000°E)
Time: 01:52:41
(UTC-05:00)

SJ-6B - Visible Passes

Search period start: 13 February 2016 00:00
Search period end: 23 February 2016 00:00
Orbit: 513 x 587 km, 97.8° (Epoch: 12 February)

Date Brightness Start Highest point End Pass type
(mag) Time Alt. Az. Time Alt. Az. Time Alt. Az.
13 Feb 5.2 06:48:23 10° SSW 06:51:41 27° WSW 06:54:55 10° NW visible
14 Feb 4.9 06:44:01 10° S 06:47:26 31° WSW 06:50:47 10° NW visible
15 Feb 4.6 06:39:40 10° S 06:43:11 35° WSW 06:46:38 10° NW visible
16 Feb 4.3 06:35:19 10° S 06:38:55 40° WSW 06:42:28 10° NW visible
17 Feb 4.0 06:30:59 10° S 06:34:40 46° WSW 06:38:16 10° NNW visible
18 Feb 3.7 06:26:39 10° S 06:30:23 53° WSW 06:34:03 10° NNW visible
19 Feb 3.4 06:22:19 10° S 06:26:06 62° WSW 06:29:49 10° NNW visible
20 Feb 3.1 06:18:00 10° S 06:21:49 72° WSW 06:25:34 10° NNW visible
